Weather History for Fallon NAS, NV

Change the Weather History Date:

Monday, November 21, 2011

  Actual Average Record
Temperature  
Mean Temperature 32 °F -  
Max Temperature 46 °F 51 °F 71 °F (1998)
Min Temperature 17 °F 25 °F 5 °F (1929)
Degree Days  
Heating Degree Days 34    
Moisture  
Dew Point 22 °F    
Average Humidity 76    
Maximum Humidity 93    
Minimum Humidity 50    
Precipitation  
Precipitation 0.00 in - - ()
Sea Level Pressure  
Sea Level Pressure 30.02 in    
Wind  
Wind Speed 3 mph (SE)    
Max Wind Speed 8 mph    
Max Gust Speed -    
Visibility 7 miles    
Events Fog    
Averages and records for this station are not official NWS values.
T = Trace of Precipitation, MM = Missing Value Source: NWS Daily Summary

Daily Weather History Graph

Daily Weather History Graph

Search for Another Location

Airport:

Trip Planner

Search our weather history database for the weather conditions in past years. The results will help you decide how hot, cold, wet, or windy it might be!

Date:

Astronomy

Nov. 21, 2011 Rise Set
Actual Time 6:45 AM PST 4:35 PM PST
Civil Twilight 6:16 AM PST 5:04 PM PST
Nautical Twilight 5:43 AM PST 5:37 PM PST
Astronomical Twilight 5:11 AM PST 6:09 PM PST
Moon 2:30 AM PST (11/21) 2:00 PM PST (11/21)
Length of Visible Light 10h 48m
Length of Day
9h 50m
Waning Crescent, 16% of the Moon is Illuminated
Nov 21
Waning Crescent
Nov 24
New
Dec 2
First Quarter
Dec 10
Full
Dec 17
Last Quarter

Hourly Weather History & Observations

Time (PST) Temp. Windchill Dew Point Humidity Pressure Visibility Wind Dir Wind Speed Gust Speed Precip Events Conditions
12:06 AM 24.8 °F - 19.4 °F 80% 30.00 in 1.8 mi Calm Calm - N/A   Haze
12:15 AM 23.0 °F - 21.2 °F 93% 30.01 in 0.8 mi Calm Calm - N/A   Clear
12:27 AM 23.0 °F 18.4 °F 21.2 °F 93% 30.00 in 0.2 mi SE 3.5 mph - N/A Fog Light Freezing Fog
12:42 AM 21.2 °F 13.6 °F 19.4 °F 93% 30.00 in 0.5 mi SE 5.8 mph - N/A Fog Light Freezing Fog
12:51 AM 21.2 °F 14.9 °F 19.4 °F 93% 30.00 in 0.2 mi South 4.6 mph - N/A Fog Light Freezing Fog
12:56 AM 23.0 °F 17.0 °F 21.0 °F 92% 29.92 in 0.8 mi SSE 4.6 mph - N/A   Mist
12:58 AM 23.0 °F 17.0 °F 21.2 °F 93% 30.00 in 1.5 mi SSE 4.6 mph - N/A   Partly Cloudy
1:00 AM 23.0 °F 17.0 °F 21.2 °F 93% 30.00 in 4.0 mi SSE 4.6 mph - N/A   Partly Cloudy
1:56 AM 23.0 °F - 18.0 °F 81% 29.94 in 10.0 mi Calm Calm - N/A   Clear
2:44 AM 21.2 °F - 19.4 °F 93% 30.03 in 1.5 mi Calm Calm - N/A   Clear
2:52 AM 21.9 °F - 19.9 °F 92% 29.95 in 0.2 mi Calm Calm - N/A Fog Light Freezing Fog
3:05 AM 19.4 °F 14.3 °F 15.8 °F 86% 30.04 in 0.8 mi SSE 3.5 mph - N/A   Mist
3:08 AM 17.6 °F 10.7 °F 14.0 °F 86% 30.04 in 1.5 mi South 4.6 mph - N/A   Partly Cloudy
3:11 AM 19.4 °F 12.8 °F 15.8 °F 86% 30.04 in 3.0 mi South 4.6 mph - N/A   Scattered Clouds
3:56 AM 21.0 °F 14.6 °F 17.1 °F 85% 29.95 in 10.0 mi South 4.6 mph - N/A   Clear
4:56 AM 19.9 °F 11.1 °F 16.0 °F 85% 29.96 in 10.0 mi South 6.9 mph - N/A   Clear
5:56 AM 19.0 °F 11.1 °F 15.1 °F 85% 29.96 in 10.0 mi South 5.8 mph - N/A   Clear
6:16 AM 19.4 °F 12.8 °F 15.8 °F 86% 30.06 in 10.0 mi South 4.6 mph - N/A   Partly Cloudy
6:56 AM 19.9 °F 13.4 °F 17.1 °F 89% 29.99 in 10.0 mi SSE 4.6 mph - N/A   Scattered Clouds
7:56 AM 28.0 °F - 23.0 °F 81% 30.02 in 10.0 mi Calm Calm - N/A   Scattered Clouds
8:56 AM 32.0 °F 27.5 °F 23.0 °F 69% 30.03 in 10.0 mi Variable 4.6 mph - N/A   Scattered Clouds
9:56 AM 37.9 °F 35.5 °F 26.1 °F 62% 30.04 in 10.0 mi NE 3.5 mph - N/A   Scattered Clouds
10:56 AM 43.0 °F 41.3 °F 28.9 °F 58% 30.04 in 10.0 mi Variable 3.5 mph - N/A   Scattered Clouds
11:56 AM 46.0 °F 43.1 °F 28.9 °F 51% 30.04 in 10.0 mi Variable 5.8 mph - N/A   Scattered Clouds
12:56 PM 46.9 °F - 28.9 °F 50% 30.03 in 10.0 mi ENE 8.1 mph - N/A   Mostly Cloudy
1:56 PM 46.0 °F 43.9 °F 28.9 °F 51% 30.02 in 10.0 mi NE 4.6 mph - N/A   Mostly Cloudy
2:56 PM 46.0 °F 44.8 °F 28.9 °F 51% 30.01 in 10.0 mi NNE 3.5 mph - N/A   Mostly Cloudy
3:56 PM 45.0 °F 41.8 °F 28.9 °F 53% 30.02 in 10.0 mi NNE 5.8 mph - N/A   Mostly Cloudy
4:56 PM 43.0 °F 41.3 °F 28.9 °F 58% 30.02 in 10.0 mi NNE 3.5 mph - N/A   Mostly Cloudy
5:56 PM 41.0 °F 38.0 °F 28.9 °F 62% 30.04 in 10.0 mi NE 4.6 mph - N/A   Mostly Cloudy
6:56 PM 39.0 °F 36.8 °F 28.0 °F 65% 30.05 in 10.0 mi NE 3.5 mph - N/A   Overcast
7:56 PM 35.1 °F - 26.1 °F 70% 30.06 in 10.0 mi Calm Calm - N/A   Mostly Cloudy
8:56 PM 34.0 °F - 25.0 °F 70% 30.07 in 10.0 mi Calm Calm - N/A   Scattered Clouds
9:56 PM 30.9 °F - 23.0 °F 72% 30.08 in 10.0 mi Calm Calm - N/A   Partly Cloudy
10:56 PM 30.9 °F - 21.9 °F 69% 30.08 in 9.0 mi Calm Calm - N/A   Clear
11:56 PM 30.9 °F 27.5 °F 24.1 °F 76% 30.08 in 10.0 mi South 3.5 mph - N/A   Clear